Theta_e
312 312 324 328 333 331 335 335 336 337 337 334 334 333 334 332 332 333 335 337 335 335 326 327 328 323 320 320 320 319 317 317 315 314 314 314 313 313 312 309 308 310 315 313 313 316 320 319 316
316 321 327 332 331 334 334 335 337 338 336 335 334 334 333 333 331 331 334 338 336 334 326 327 327 322 320 320 320 318 317 317 316 315 314 314 313 313 313 312 312 314 313 312 312 312 323 328 324
321 324 330 332 334 335 337 339 338 336 335 332 332 332 331 332 332 332 338 337 336 333 326 326 325 321 320 320 319 318 317 317 316 315 315 315 315 314 314 315 319 321 323 320 320 317 324 331 331
321 326 330 337 336 336 337 339 337 336 335 332 331 332 331 331 331 332 335 337 336 333 327 326 324 321 320 320 319 318 318 317 316 315 316 316 315 315 315 321 324 325 324 325 326 325 323 330 331
325 329 332 333 332 333 335 335 338 338 336 334 332 332 331 332 331 332 335 336 336 336 336 332 324 322 321 321 319 319 319 318 318 318 317 316 316 316 323 329 327 326 326 329 325 331 330 327 320
328 329 336 333 332 331 332 331 332 333 334 333 332 332 332 331 331 332 333 335 336 336 336 337 324 322 321 321 321 320 319 319 319 319 320 318 316 318 328 331 332 328 326 326 328 331 327 328 328
329 334 334 333 331 331 331 331 332 331 332 332 332 332 331 332 333 332 332 334 335 335 336 337 334 322 322 322 322 321 321 321 320 320 320 320 318 319 328 327 324 322 323 323 323 322 322 327 327
327 332 333 333 333 332 332 331 331 331 331 332 331 332 332 332 332 330 330 331 333 334 336 337 340 332 323 322 322 323 323 323 322 321 320 321 320 325 326 326 325 325 324 320 317 318 319 319 323
326 330 332 333 333 332 331 332 331 331 331 331 330 331 331 330 331 331 331 331 331 334 335 336 337 342 336 333 327 323 323 323 323 322 321 321 327 333 334 333 332 330 325 320 317 316 317 317 317
326 331 332 332 332 332 332 332 331 331 332 331 330 330 331 331 331 331 330 329 330 332 335 336 337 339 343 339 337 335 326 324 324 324 330 334 335 333 333 333 331 328 327 319 319 318 318 319 327
328 331 332 332 332 331 332 332 331 332 333 331 330 330 331 330 330 330 329 328 330 331 333 336 338 338 341 340 337 343 342 339 337 338 337 336 334 333 334 334 332 331 331 330 329 329 330 329 329
331 330 331 331 331 331 332 330 332 331 331 330 329 330 330 330 329 329 328 329 329 332 333 335 338 340 340 339 337 339 342 339 338 339 339 337 333 334 334 333 332 331 330 330 329 329 328 328 328
328 329 329 330 330 330 330 330 331 331 330 330 329 330 330 330 328 327 327 328 329 333 333 333 338 339 340 336 338 339 339 338 338 336 335 334 333 334 334 333 332 331 331 330 329 328 329 328 329
327 327 327 327 327 329 330 330 330 330 330 329 329 329 329 329 327 327 327 328 329 333 334 334 337 340 339 342 338 339 339 337 337 334 332 333 334 334 334 334 331 330 330 330 330 328 328 328 329
327 329 329 329 327 328 328 330 330 329 329 329 329 328 328 327 327 327 327 328 330 332 334 335 337 340 338 340 339 341 339 336 336 334 332 334 335 334 333 333 334 332 329 328 329 329 328 328 328
327 329 330 329 329 328 328 330 330 329 329 329 328 328 328 327 327 327 328 328 330 331 334 336 338 341 341 344 342 341 338 337 333 332 333 335 334 333 333 334 332 330 329 328 328 328 327 328 327
328 330 330 329 329 329 330 331 330 328 328 329 328 328 327 327 327 327 328 328 328 330 332 337 338 341 345 346 344 341 337 335 332 332 333 334 335 334 332 332 331 329 328 327 328 328 328 328 327
327 328 328 328 329 329 330 331 330 327 327 327 328 328 327 327 327 327 327 328 328 333 335 339 339 341 344 346 344 340 336 334 332 333 333 333 334 333 333 331 330 328 327 328 326 327 327 328 327
325 326 327 328 328 328 328 329 330 328 327 328 328 328 328 327 327 327 328 331 332 333 337 339 339 340 344 344 341 336 334 333 332 332 333 334 334 333 333 332 329 328 328 327 328 326 325 326 327
322 324 326 327 328 329 329 329 330 330 329 327 327 327 327 327 327 327 328 335 334 336 336 338 339 342 343 341 337 333 332 332 333 333 334 334 333 333 334 331 330 328 327 326 326 325 326 323 324
323 324 325 326 327 328 328 329 329 328 327 326 325 325 325 326 326 327 328 336 335 336 337 338 339 343 340 337 333 332 332 333 334 331 333 332 331 332 331 329 328 326 326 328 327 325 324 325 324
323 323 324 325 327 328 327 330 328 328 328 327 327 326 326 326 327 328 328 336 336 337 338 338 340 339 336 332 333 334 333 331 331 333 331 332 332 331 330 329 327 328 327 323 325 325 326 325 325
322 323 325 325 325 325 325 327 326 326 327 327 328 326 326 326 327 327 332 336 336 337 338 339 339 336 335 333 333 332 330 330 332 330 332 331 332 330 328 328 329 328 326 325 323 323 324 324 325
321 322 324 325 325 327 325 326 327 327 327 327 328 327 327 328 328 331 335 335 336 336 337 338 337 336 335 333 334 331 333 332 331 332 332 330 330 327 327 329 329 328 325 325 327 326 326 324 325
321 323 325 326 327 328 325 326 327 327 327 328 328 328 327 330 333 334 334 335 335 336 336 336 336 336 334 333 333 333 334 333 333 333 331 331 330 327 326 329 327 328 327 327 327 328 328 326 325
321 323 325 328 328 326 325 326 327 327 327 326 326 326 332 334 334 334 334 334 335 335 335 334 335 334 333 333 333 333 333 333 331 331 331 329 329 328 330 329 328 326 328 328 329 330 329 328 327
321 324 323 326 327 328 327 327 327 328 329 327 329 327 332 334 334 334 334 334 334 334 334 334 334 333 333 332 333 332 333 332 331 329 327 330 329 328 329 330 328 329 330 328 330 328 328 326 325
321 322 323 327 327 327 327 328 326 329 328 328 330 329 331 334 334 334 334 334 334 334 333 334 334 333 332 332 332 332 333 332 332 332 331 329 330 329 329 329 328 329 329 328 327 326 326 326 324
320 322 323 325 325 327 328 326 327 329 329 329 329 330 334 334 334 334 333 333 334 333 334 334 333 331 331 332 331 332 331 332 331 331 330 329 329 328 328 329 329 329 329 329 328 326 327 328 326
320 322 324 326 327 325 326 327 329 327 329 331 332 333 334 334 333 333 333 333 333 334 334 334 331 330 330 331 331 330 332 332 332 331 329 330 328 327 328 328 328 328 330 330 326 328 327 328 326
Wind_Speed
8 11 6 7 7 7 14 10 10 6 9 1 4 7 12 13 9 5 4 2 7 16 11 15 15 12 11 10 10 9 7 6 3 3 5 7 8 9 8 9 10 10 9 9 11 11 9 8 10
10 9 8 12 8 13 14 12 9 8 8 6 9 9 12 8 7 5 5 5 8 16 11 16 16 14 13 12 10 10 8 6 4 3 5 6 7 9 10 9 10 10 10 9 9 10 10 10 7
14 11 11 6 13 14 6 2 11 8 3 6 6 2 9 6 4 5 4 3 10 15 12 16 17 16 14 14 11 9 7 6 5 4 5 6 7 9 10 10 9 10 11 11 10 10 9 11 11
13 10 13 10 18 15 11 4 2 4 7 5 8 10 2 3 2 4 2 5 10 13 15 17 19 18 17 16 13 11 9 7 5 4 5 7 8 9 10 11 11 11 13 14 14 13 11 13 14
14 15 12 15 18 19 6 11 14 12 12 7 4 13 4 10 5 3 1 5 8 11 15 18 20 20 20 19 17 14 11 9 8 6 7 8 9 10 9 10 12 15 15 16 17 17 15 16 17
15 19 14 15 20 18 8 9 13 15 18 12 6 14 10 3 3 5 4 5 8 13 17 19 20 22 23 23 20 17 14 12 11 11 10 10 12 12 12 13 15 17 18 19 20 18 19 19 18
20 13 16 19 19 16 3 6 12 14 14 16 7 5 11 3 3 8 10 11 11 14 17 19 21 25 26 26 25 22 19 17 15 15 13 13 14 13 13 17 18 19 20 21 23 24 23 22 22
24 13 23 20 18 17 9 5 16 11 14 4 3 9 14 10 12 15 16 17 16 15 18 18 19 21 28 29 29 28 24 21 19 18 17 16 17 15 15 17 18 18 19 18 19 21 23 24 26
21 16 18 22 22 16 18 15 13 5 12 18 14 17 19 21 21 17 19 19 22 16 17 19 21 21 23 25 28 30 27 24 22 21 19 19 16 12 16 16 18 23 21 21 18 16 17 19 22
24 17 25 23 20 18 22 22 21 19 13 20 19 24 23 18 19 23 24 26 22 22 18 22 24 24 21 21 22 23 29 27 24 22 16 14 12 12 14 16 22 21 19 17 15 14 13 14 12
30 25 25 26 28 30 28 30 27 24 21 24 21 24 24 26 25 27 27 26 25 23 16 20 25 31 25 22 23 17 18 18 17 17 15 14 13 12 13 13 15 16 14 12 12 11 9 8 11
29 36 35 34 36 34 31 37 27 31 28 28 25 25 26 27 25 23 26 26 26 22 19 19 25 30 31 23 24 21 17 18 16 15 16 15 12 12 12 12 13 14 12 12 11 10 12 16 13
32 31 39 39 40 42 37 32 33 32 34 33 30 26 26 27 26 25 26 26 25 24 20 18 27 33 31 33 24 24 20 19 17 16 15 15 13 13 13 16 18 13 13 13 12 12 14 15 14
38 37 38 41 42 39 34 36 34 34 33 35 32 31 31 28 24 24 25 25 25 24 21 18 27 32 34 29 30 30 26 20 20 16 15 16 14 13 12 15 19 16 14 14 15 16 18 14 13
40 35 33 34 35 31 28 33 33 39 35 36 35 33 32 26 24 25 26 24 23 24 20 20 27 34 35 32 34 29 23 23 18 15 16 15 15 13 14 15 16 18 18 18 16 16 16 14 14
35 30 30 33 33 34 29 34 29 34 34 32 25 31 24 25 28 26 27 24 23 22 21 20 24 31 36 30 31 28 22 20 18 14 14 14 15 14 15 16 18 17 19 18 18 17 15 15 14
26 28 36 32 29 27 30 39 29 33 34 33 41 24 26 30 33 32 28 25 24 25 25 22 26 27 31 26 26 25 23 19 15 14 13 13 14 13 18 18 18 19 19 18 15 15 15 14 14
31 33 30 33 28 28 33 35 31 26 29 33 38 36 32 34 37 34 27 26 22 20 20 21 25 27 29 23 25 21 20 17 14 13 13 13 13 14 18 19 19 18 18 18 16 14 14 14 14
30 27 33 32 27 28 31 31 24 23 32 33 36 41 37 34 36 35 29 18 21 17 19 21 25 27 28 25 24 22 19 15 13 12 13 13 12 14 15 16 17 17 19 17 14 15 15 15 14
33 31 33 29 28 23 25 28 25 24 25 33 37 38 37 35 38 33 23 14 13 13 16 18 21 26 26 24 22 19 16 11 10 10 12 11 11 13 16 17 16 17 16 14 14 14 14 16 15
32 33 28 30 24 21 22 28 28 26 30 37 39 41 40 39 35 29 23 12 9 13 16 19 21 24 25 21 20 17 14 11 10 10 10 12 13 12 14 14 14 14 13 11 14 16 17 14 16
33 29 27 25 21 18 21 23 25 18 24 23 28 31 31 29 27 27 18 11 12 13 15 18 21 23 22 24 18 17 12 9 9 8 7 7 10 9 11 13 11 9 9 12 11 11 12 15 14
36 25 25 25 21 22 24 17 18 21 22 23 23 30 29 29 27 26 15 14 14 16 18 20 22 23 22 20 15 13 10 8 6 6 8 8 10 11 9 6 7 8 8 9 9 8 8 10 11
29 27 25 20 17 20 22 20 22 21 20 20 20 19 25 25 22 10 13 17 17 18 20 22 24 21 19 17 14 12 10 7 6 5 6 11 12 11 8 6 5 8 5 5 5 4 5 6 7
27 23 16 16 17 21 18 20 23 20 18 17 16 13 7 11 12 16 19 20 21 22 23 23 23 20 18 15 12 10 7 6 5 4 8 6 9 7 5 6 7 5 6 2 4 5 4 5 5
31 28 17 28 12 16 22 18 16 17 10 10 13 15 10 10 14 18 20 22 23 24 24 23 21 20 17 14 12 9 7 4 2 4 3 6 5 7 6 4 2 2 2 4 6 5 4 5 4
40 27 32 24 20 14 13 16 15 17 14 10 10 16 15 14 18 20 21 23 24 24 23 22 21 18 16 14 12 9 6 5 6 6 2 3 6 6 6 3 1 3 1 3 5 6 5 4 3
33 29 22 21 24 15 14 10 8 2 7 13 10 13 16 17 21 22 23 24 24 23 22 20 19 17 15 13 11 9 7 6 3 2 3 6 8 7 5 2 2 2 1 0 3 3 6 5 3
26 23 30 21 18 15 11 9 2 5 2 15 14 16 19 22 23 24 24 24 24 23 21 19 18 16 14 12 10 10 7 6 3 4 5 6 8 7 5 3 2 2 1 2 1 5 6 6 8
30 27 31 16 22 17 11 4 4 9 7 5 3 13 19 22 24 25 26 25 24 22 21 19 16 15 14 12 10 8 7 6 5 6 8 5 8 6 4 3 0 0 2 1 1 2 6 7 7
Wind_Direction
184 153 147 206 236 234 247 225 259 202 215 156 299 287 334 344 328 8 59 143 148 166 199 191 193 191 191 193 200 208 209 220 244 292 310 310 304 295 287 278 274 277 273 278 290 296 287 270 271
173 169 198 265 250 223 230 218 180 233 20 315 282 265 250 290 14 339 55 140 162 175 204 196 194 196 192 198 197 207 204 213 248 289 308 311 303 296 289 280 266 265 268 271 277 284 294 298 278
172 183 247 228 233 264 315 149 257 84 262 283 280 229 313 355 63 346 11 176 171 186 212 200 195 195 191 195 193 202 203 214 243 286 307 313 306 295 288 281 271 256 267 268 283 276 266 280 290
172 210 255 258 253 234 299 251 114 252 197 231 303 290 304 97 348 355 8 174 188 200 211 206 197 202 197 199 197 198 203 214 232 268 297 312 305 292 285 277 272 270 275 276 278 279 249 257 267
203 248 247 239 247 270 265 283 311 301 275 242 264 289 303 108 76 25 20 192 209 217 202 214 202 206 207 207 206 206 212 217 237 267 298 316 312 302 283 269 274 278 278 275 276 269 259 259 259
219 235 250 249 242 245 230 277 278 274 273 281 219 253 280 108 67 347 325 279 243 226 212 211 209 210 212 213 213 216 219 227 244 259 280 307 310 301 290 285 280 277 271 269 268 264 265 261 259
233 240 249 266 274 278 264 302 279 262 273 278 254 289 296 146 67 321 302 290 269 242 219 210 230 214 216 218 217 221 226 235 246 257 267 283 296 289 284 276 275 280 276 273 272 271 264 258 262
238 252 268 265 260 268 270 302 266 280 272 20 313 277 286 319 322 309 299 290 282 262 239 223 222 227 220 220 222 224 230 237 244 255 262 274 285 288 292 291 281 274 281 280 276 267 263 261 256
233 254 251 253 256 263 269 239 263 230 286 297 281 287 286 287 292 292 294 296 282 264 249 233 223 221 222 218 227 225 231 236 241 250 259 271 278 274 287 303 277 288 288 286 279 274 265 261 257
228 238 242 256 265 270 285 288 292 270 251 276 274 282 273 291 291 291 291 292 282 270 248 238 221 217 216 212 222 236 234 233 239 247 252 271 267 260 255 256 271 294 298 283 284 284 280 267 255
232 240 252 256 264 278 287 274 278 277 277 276 289 290 291 291 289 289 283 288 284 271 262 235 225 217 211 212 211 223 220 221 230 232 235 243 248 261 272 283 293 296 303 308 291 302 297 251 251
242 238 245 258 267 282 280 285 273 268 274 281 285 285 287 288 289 291 294 293 284 262 259 231 218 225 213 211 212 214 217 217 218 231 233 238 248 263 271 272 269 270 270 266 262 256 246 242 248
236 242 251 257 264 268 272 275 278 270 275 280 283 284 281 279 283 288 294 291 276 262 258 247 216 224 227 205 213 211 212 217 219 221 236 238 240 252 259 269 260 252 262 259 264 253 257 261 252
244 250 253 259 264 267 268 270 265 261 267 277 276 275 274 277 283 288 294 289 273 261 255 244 218 216 229 214 199 214 205 213 215 220 232 245 242 248 256 264 271 265 259 258 246 251 255 258 248
255 256 259 256 256 262 268 271 262 268 268 272 271 271 265 268 276 289 293 283 270 259 254 234 218 217 229 224 202 209 209 204 216 221 232 235 242 258 261 262 263 255 250 255 252 255 258 256 251
250 255 257 250 250 249 247 260 266 271 271 272 270 271 269 271 281 286 290 282 266 258 247 239 216 218 223 214 204 206 207 204 210 221 232 245 250 259 255 262 263 264 255 256 256 252 247 242 246
240 242 241 250 246 250 245 255 257 266 269 263 264 268 269 272 279 284 284 279 263 256 251 235 216 209 213 210 203 203 206 200 207 217 230 241 251 258 271 266 267 268 262 257 252 249 241 240 241
228 236 244 255 255 249 247 255 259 272 270 268 276 273 263 275 278 282 283 278 260 249 242 225 213 203 209 200 199 200 205 204 206 218 231 241 252 261 268 268 268 267 263 256 256 242 232 233 241
242 246 247 250 248 238 257 269 264 252 257 264 273 278 273 271 277 281 277 260 249 244 224 207 204 195 195 193 192 195 203 200 209 220 234 244 257 262 261 259 267 265 264 259 245 235 233 240 233
243 252 252 263 264 260 260 268 271 270 282 283 279 276 276 277 276 270 266 237 252 222 209 195 188 187 185 189 186 194 195 205 214 228 235 250 260 268 259 268 269 268 262 253 240 232 239 245 239
231 235 245 254 261 263 272 273 272 268 266 264 264 266 263 261 262 266 257 225 213 201 190 183 180 181 176 179 178 178 181 190 209 229 249 264 279 257 267 277 272 263 256 241 239 241 241 243 239
236 230 242 255 265 264 251 266 259 264 266 268 273 271 267 260 257 249 240 193 192 187 175 171 170 171 167 170 177 176 182 204 224 221 244 246 257 262 262 264 260 258 242 244 249 254 240 235 230
241 234 238 239 247 260 254 260 272 265 266 265 261 257 261 253 245 247 197 189 179 172 166 163 162 160 168 160 171 178 187 216 230 233 244 265 256 254 252 267 236 244 250 253 252 242 230 216 209
238 232 241 244 249 247 243 252 268 268 276 284 284 261 252 235 231 190 167 170 167 162 160 157 158 160 161 163 169 160 190 196 214 233 252 264 267 270 234 228 247 252 256 242 209 209 203 209 209
224 217 223 226 228 244 243 246 259 274 275 279 291 255 231 129 145 166 167 162 159 158 157 156 156 159 161 162 165 170 176 189 211 240 272 261 266 260 197 204 225 231 227 187 199 211 213 217 209
222 206 210 213 216 233 224 243 257 254 254 271 264 234 146 167 165 168 164 158 156 155 154 155 158 158 161 163 165 167 181 178 216 249 249 274 259 169 176 192 218 212 176 175 208 212 201 217 246
213 212 216 245 220 245 237 224 239 250 249 246 233 187 156 167 166 161 157 156 155 154 155 158 158 160 163 166 162 170 178 175 206 229 125 235 157 149 161 177 148 115 252 200 198 208 227 236 249
223 210 205 225 239 226 242 241 238 191 201 176 197 180 163 162 161 157 155 154 154 154 155 157 159 162 164 163 167 174 172 183 189 162 148 192 152 158 169 159 68 105 74 259 204 195 200 206 242
215 202 212 219 228 229 235 249 194 199 219 181 196 167 159 164 159 157 154 152 153 155 156 159 160 162 162 163 170 177 179 180 189 179 150 166 158 164 160 160 53 57 40 54 170 213 207 223 220
215 214 203 214 208 235 213 155 82 175 241 356 327 131 159 161 160 158 154 155 157 156 160 162 163 163 164 167 173 180 183 183 193 160 153 170 148 167 168 163 134 334 20 226 309 261 195 200 205